To NAV CANADA Home Page Login to a new session Search on AWWS site Feedback and Comments Disclaimer Vers la page française équivalente Tips FAQ What's new on the site To the Forecasts and Observations / NOTAM section To "File a Flight Plan" website Publications and other links Update of the User's profile FIC Telephone Numbers My Weather Data Folder Route Weather Data Regional Weather Data Local Weather Data To the Forecasts and Observations / NOTAM section
Request Generated 09/27/2016 at 22:17:59 UTC . Weather information available at that time is displayed.

METAR/TAF

SALLUIT/QC    

LWIS CYZG 272200Z AUTO 28002KT 06/03 A3013=
LWIS CYZG 272100Z AUTO 23006KT 07/03 A3012=
LWIS CYZG 272000Z AUTO 20006KT 07/03 A3011=

CYZG - No TAF is issued for this station

Your time UTC time
Weather data provided by Environment Canada and NAV CANADA